Location: Bushey
(51.6333°N, 0.3667°W)
Time: 19:09:42
(UTC+00:00)

SPOT 3 Rocket - Pass Details

Date: 03 March 2021
Orbit: 778 x 795 km, 98.7° (Epoch: 17 April)

Event Time Altitude Azimuth Distance (km) Brightness Sun altitude
Exits shadow 20:18:42 64° 131° (SE) 878 3.5 -24.2°
Maximum altitude 20:19:26 76° 72° (ENE) 822 3.4 -24.3°
Drops below altitude 10° 20:24:41 10° 347° (NNW) 2,377 6.5 -25.0°
Sets 20:27:01 0° 346° (NNW) 3,312 7.3 -25.4°
